Flag for Switzerland Weather past 2 weeks in Aarau, Aargau, Switzerland

Now
43 °F

Quite cool.


Feels Like: 39 °F
Forecast: 34 / 51 °F
Wind: 6 mph from Southwest

Location: Wynau

Current Time: Oct 22, 2014 at 6:44:45 PM

Latest Report: Oct 22, 2014 at 6:00 PM


Visibility: N/A

Pressure: 30.25 "Hg

Humidity: 86%

Dew point: 39 °F

Location of AarauLocation

Historic Weather in Aarau — Graph

°F

Aarau temperature yesterday

Maximum temperature yesterday: 68 °F (at 1:00 PM)
Minimum temperature yesterday: 50 °F (at 9:00 PM)
Average temperature yesterday: 59 °F

Past Weeks' High & Low Weather Summary

 TemperatureHumidityPressure
High73 °F (Oct 9, 4:00 PM)100% (Oct 8, 4:00 AM)30.28 "Hg (Oct 8, 4:00 AM)
Low39 °F (Oct 22, 12:00 PM)50% (Oct 21, 3:00 PM)29.76 "Hg (Oct 15, 5:00 PM)
Average57 °F90%29.97 "Hg
* Reported Oct 7 5:00 PM — Oct 22 5:00 PM, Aarau, Weather by CustomWeather, © 2014

Note: Actual official high and low records may vary slightly from our data, if they occured in-between our weather recording intervals... More about our weather records

Advertising

Aarau weather history for previous 24 hours

 ConditionsComfort  
Time TempWeatherWind HumidityBarometerVisibility
5:00 PM
Oct 22
45 °FQuite cool.7 mph73%30.23 "HgN/A
4:00 PM47 °FCool.8 mph61%30.23 "HgN/A
3:00 PM45 °FCool.9 mph65%30.24 "HgN/A
2:00 PM44 °FQuite cool.6 mph71%30.26 "HgN/A
1:00 PM44 °FQuite cool.7 mph74%30.26 "HgN/A
12:00 PM39 °FChilly.9 mph93%30.28 "HgN/A
11:00 AM43 °FQuite cool.10 mph71%30.23 "HgN/A
10:00 AM44 °FQuite cool.10 mph64%30.22 "HgN/A
9:00 AM42 °FQuite cool.6 mph78%30.22 "HgN/A
8:00 AM40 °FQuite cool.5 mph84%30.19 "HgN/A
7:00 AM41 °FQuite cool.7 mph87%30.14 "HgN/A
6:00 AM41 °FQuite cool.8 mph92%30.14 "HgN/A
5:00 AM42 °FQuite cool.6 mph84%30.15 "HgN/A
4:00 AM47 °FCool.9 mph71%30.09 "HgN/A
3:00 AM47 °FCool.8 mph68%30.11 "HgN/A
2:00 AM49 °FCool.8 mph64%30.11 "HgN/A
1:00 AM50 °FCool.12 mph61%30.10 "HgN/A
12:00 AM51 °FCool.9 mph58%30.10 "HgN/A
11:00 PM
Oct 21
51 °FCool.10 mph57%30.08 "HgN/A
10:00 PM52 °FCool.14 mph62%30.02 "HgN/A
9:00 PM50 °FCool.12 mph78%29.93 "HgN/A
8:00 PM56 °FCool.16 mph74%29.84 "HgN/A
7:00 PM59 °FCool.8 mph81%29.77 "HgN/A
6:00 PM59 °FCool.12 mph81%29.80 "HgN/A
Weather by CustomWeather, © 2014

See weather overviewHow to use our weather pages